Cleveland Burke, OH

3:27 PM EDT on June 23, 2017 (GMT -0400)
Burke Lakefront

Weather History for KBKL - August, 2014

Change the Weather History Date:

Wednesday, August 20, 2014

  Actual Average Record
Temperature  
Mean Temperature 74 °F -  
Max Temperature 82 °F 77 °F 91 °F (2016)
Min Temperature 66 °F 64 °F 55 °F (1998)
Cooling Degree Days 8    
Growing Degree Days 24 (Base 50)    
Moisture  
Dew Point 67 °F    
Average Humidity 81    
Maximum Humidity 93    
Minimum Humidity 67    
Precipitation  
Precipitation 0.46 in - - ()
Sea Level Pressure  
Sea Level Pressure 29.86 in    
Wind  
Wind Speed 11 mph (South)    
Max Wind Speed 16 mph    
Max Gust Speed 24 mph    
Visibility 10 miles    
Events Rain    
Averages and records for this station are not official NWS values.
T = Trace of Precipitation, MM = Missing Value Source: NWS Daily Summary

Daily Weather History Graph

Daily Weather History Graph

Search for Another Location

Airport or City:

Trip Planner

Search our weather history database for the weather conditions in past years. The results will help you decide how hot, cold, wet, or windy it might be!

Date:

Astronomy

Aug. 20, 2014 Rise Set
Actual Time 6:40 AM EDT 8:18 PM EDT
Civil Twilight 6:11 AM EDT 8:48 PM EDT
Nautical Twilight 5:35 AM EDT 9:23 PM EDT
Astronomical Twilight 4:57 AM EDT 10:01 PM EDT
Moon 2:18 AM EDT (8/20) 5:04 PM EDT (8/20)
Length of Visible Light 14h 36m
Length of Day
13h 38m
Waning Crescent, 21% of the Moon is Illuminated
Aug 20
Waning Crescent
Aug 25
New
Sep 2
First Quarter
Sep 8
Full
Sep 15
Last Quarter

Hourly Weather History & Observations

Time (EDT) Temp. Heat Index Dew Point Humidity Pressure Visibility Wind Dir Wind Speed Gust Speed Precip Events Conditions
12:53 AM 69.1 °F - 64.9 °F 87% 29.81 in 10.0 mi SSE 12.7 mph - N/A   Mostly Cloudy
1:53 AM 69.1 °F - 66.0 °F 90% 29.81 in 10.0 mi SSE 11.5 mph - 0.00 in   Overcast
2:53 AM 69.1 °F - 64.9 °F 87% 29.80 in 10.0 mi SSE 13.8 mph 20.7 mph 0.01 in   Partly Cloudy
3:53 AM 68.0 °F - 64.0 °F 87% 29.80 in 10.0 mi SSE 13.8 mph 21.9 mph 0.00 in   Scattered Clouds
4:53 AM 68.0 °F - 64.0 °F 87% 29.80 in 10.0 mi SSE 11.5 mph - 0.01 in   Scattered Clouds
5:32 AM 68.0 °F - 64.4 °F 88% 29.82 in 2.5 mi SSE 15.0 mph 24.2 mph 0.31 in Rain Heavy Rain
5:48 AM 68.0 °F - 64.4 °F 88% 29.84 in 7.0 mi ESE 6.9 mph - 0.41 in Rain Light Rain
5:53 AM 66.9 °F - 64.9 °F 93% 29.84 in 10.0 mi SE 6.9 mph - 0.41 in Rain Light Rain
6:53 AM 68.0 °F - 64.9 °F 90% 29.84 in 10.0 mi SSE 12.7 mph - 0.03 in Rain Light Rain
7:53 AM 68.0 °F - 64.9 °F 90% 29.84 in 10.0 mi SSE 9.2 mph - 0.00 in Rain Light Rain
8:53 AM 69.1 °F - 64.9 °F 87% 29.86 in 10.0 mi SSE 10.4 mph - 0.00 in   Mostly Cloudy
9:53 AM 72.0 °F - 66.0 °F 81% 29.86 in 10.0 mi SSE 13.8 mph - N/A   Clear
10:53 AM 75.9 °F - 66.0 °F 71% 29.85 in 10.0 mi SSW 11.5 mph - N/A   Clear
11:53 AM 79.0 °F - 68.0 °F 69% 29.85 in 10.0 mi SSW 16.1 mph 20.7 mph N/A   Partly Cloudy
12:53 PM 80.1 °F 82.7 °F 68.0 °F 67% 29.86 in 10.0 mi SSW 15.0 mph 21.9 mph N/A   Scattered Clouds
1:36 PM 80.6 °F 83.9 °F 69.8 °F 70% 29.87 in 10.0 mi South 15.0 mph 20.7 mph N/A   Mostly Cloudy
1:53 PM 81.0 °F 84.1 °F 69.1 °F 67% 29.87 in 10.0 mi South 12.7 mph 19.6 mph N/A   Mostly Cloudy
2:53 PM 81.0 °F 84.1 °F 69.1 °F 67% 29.86 in 10.0 mi WSW 12.7 mph - N/A   Mostly Cloudy
3:53 PM 79.0 °F - 69.1 °F 72% 29.86 in 10.0 mi Variable 4.6 mph - 0.00 in   Mostly Cloudy
4:53 PM 78.1 °F - 71.1 °F 79% 29.87 in 10.0 mi NW 4.6 mph - N/A   Scattered Clouds
5:53 PM 75.0 °F - 71.1 °F 87% 29.89 in 10.0 mi Calm Calm - N/A   Mostly Cloudy
6:53 PM 77.0 °F - 69.1 °F 76% 29.89 in 10.0 mi Calm Calm - N/A   Mostly Cloudy
7:53 PM 75.9 °F - 69.1 °F 79% 29.89 in 10.0 mi Calm Calm - N/A   Mostly Cloudy
8:53 PM 75.0 °F - 68.0 °F 79% 29.89 in 10.0 mi Calm Calm - N/A   Clear
9:53 PM 75.9 °F - 66.9 °F 74% 29.91 in 10.0 mi Variable 4.6 mph - N/A   Clear
10:53 PM 75.0 °F - 69.1 °F 82% 29.94 in 10.0 mi South 5.8 mph - N/A   Clear
11:53 PM 73.9 °F - 69.1 °F 85% 29.95 in 10.0 mi SSE 6.9 mph - N/A   Clear